Regional Weather Roundup
Issued by NWS Grand Forks, ND

Home | Current Version | Previous Version | Text Only | Print | Product List | Glossary Off
Versions: 1 2 3 4 5 6 7 8 9 10 11 12 13 14 15 16 17 18 19 20 21 22 23 24 25 26 27 28 29 30 31 32 33 34 35 36 37 38 39 40 41 42 43 44 45 46 47 48 49 50

000
ASUS43 KFGF 212110
RWRFGF
PRAIRIE TO PINES  WEATHER ROUNDUP
NATIONAL WEATHER SERVICE EASTERN NORTH DAKOTA/GRAND FORKS ND
300 PM CST SAT JAN 21 2017

 **SATELLITE DATA USED TO AUGMENT SKY COVER AT AUTOMATED STATIONS**
 *****  WEATHER ACROSS EASTERN NORTH DAKOTA  *****

CITY           SKY/WX    TMP DP  RH WIND       PRES   REMARKS
GRAND FORKS    CLOUDY    37  33  85 E5        29.43R
GRAND FRKS AFB CLOUDY    36  34  95 CALM      29.43R
DEVILS LAKE    LGT RAIN  33  33 100 S5        29.41R FOG
FARGO          CLOUDY    39  34  82 E6        29.41R
WAHPETON ARPT  CLOUDY    34  32  93 SE3       29.41R
$$

 ***** WEATHER ACROSS CENTRAL AND WESTERN NORTH DAKOTA  *****

CITY           SKY/WX    TMP DP  RH WIND       PRES   REMARKS
BISMARCK       CLOUDY    32  29  88 NW3       29.41R
MINOT          CLOUDY    31  27  85 SW6       29.37R
JAMESTOWN      FOG       33  33 100 CALM      29.38R VSB 3/4
MINOT AFB      PTSUNNY   28  27  93 SW7       29.37R WCI  21
GARRISON         N/A     25  24  96 SW6       29.38R WCI  18
WILLISTON      PTSUNNY   32  25  75 W10       29.39R WCI  24
DICKINSON      FAIR      34  25  69 W14       29.35R WCI  25
HETTINGER      FAIR      32  26  78 W13       29.40R WCI  22
$$

 *****  OTHER AIRPORT OBSERVATIONS IN OUR AREA  *****

CITY           SKY/WX    TMP DP  RH WIND       PRES   REMARKS
WALHALLA       NOT AVBL
GRAFTON AIRPOR CLOUDY    34  34 100 NE5       29.46R FOG
VALLEY CITY AR FOG       32  32 100 SE5       29.41R VSB 1/4
CANDO          NOT AVBL
CAVALIER APRT  CLOUDY    34  34 100 SE5       29.44R FOG
GWINNER        CLOUDY    36  36 100 SE6       29.39R VSB 1/4
SHEYENNE NWR     N/A     35  35 100 SE5       29.95S
ROLLA            N/A    N/A N/A N/A MISG        N/A
 ***** THE ABOVE OBSERVATIONS ARE NON NWS ARE NOT QUALITY
       CONTROLLED AND MAY MIS-REPORT RAIN FOR SNOW...
$$

  *****  WEATHER ACROSS NORTHERN MINNESOTA  *****

CITY           SKY/WX    TMP DP  RH WIND       PRES   REMARKS
FLAG ISLAND    CLOUDY    36  34  93 E6        29.48R
WARROAD        CLOUDY    36  30  80 E6        29.48R
ROSEAU         CLOUDY    36  32  87 E6        29.47R
HALLOCK        CLOUDY    36  36 100 E5        29.45R FOG
THF RVR FALLS  CLOUDY    36  33  89 E7        29.45R
BAUDETTE       CLOUDY    35  33  92 E7        29.47R
WASKISH        CLOUDY    37  36  93 E5        29.46R
CROOKSTON      CLOUDY    37  36  93 CALM      29.44R
GREENBUSH NDAW   N/A     36  34  93 E3          N/A
$$
  *****  WEATHER ACROSS CENTRAL AND WEST MINNESOTA  *****

CITY           SKY/WX    TMP DP  RH WIND       PRES   REMARKS
FOSSTON        DRIZZLE   36  34  93 CALM      29.44R
BEMIDJI        CLOUDY    34  33  98 E6        29.43R
PARK RAPIDS    CLOUDY    37  33  85 E8        29.41R
ELBOW LAKE     CLOUDY    34  34 100 SE7       29.40S FOG
WADENA         CLOUDY    34  34 100 E3        29.41R FOG
DETROIT LAKES  CLOUDY    36  36 100 SE3       29.42R
MOORHEAD       CLOUDY    36  34  93 E3        29.42R
FERGUS FALLS   CLOUDY    36  36 100 E6        29.43F
MORRIS MN      DRZL/FOG  36  36 100 E7        29.38S VSB 1/2
STAPLES        FOG       36  36 100 CALM      29.42R VSB 1
$$
  *****  WEATHER ELSEWHERE ACROSS MINNESOTA  *****

CITY           SKY/WX    TMP DP  RH WIND       PRES   REMARKS
DULUTH         DRIZZLE   35  34  96 E14       29.43R FOG
INTRNTL FALLS  LGT RAIN  35  33  92 E7        29.48R
ELY            CLOUDY    36  34  93 E8        29.47R
CLOQUET        CLOUDY    36  34  93 E14       29.43R FOG
WHEATON        CLOUDY    43  43 100 CALM      29.42R FOG
BRAINERD       CLOUDY    35  35 100 NE5       29.43R FOG
HIBBING        LGT RAIN  34  34 100 E6        29.44R
ALEXANDRIA     CLOUDY    35  34  96 E7        29.40R FOG
SAINT CLOUD    FOG       35  35 100 E5        29.41R VSB 1/4
MINNEAPOLIS    CLOUDY    38  35  89 NE3       29.40S
$$

  *****  WEATHER ACROSS SOUTH DAKOTA  *****

CITY           SKY/WX    TMP DP  RH WIND       PRES   REMARKS
SIOUX FALLS    CLOUDY    31  29  92 W10       29.41R WCI  22
BROOKINGS      CLOUDY    32  31  96 W8        29.37R FOG     WCI  25
WATERTOWN      CLOUDY    32  32 100 W7        29.36R FOG
HURON          CLOUDY    31  28  89 NW5       29.41R
SISSETON         N/A     35  35 100 S5        29.38R
ABERDEEN       CLOUDY    32  25  75 W6        29.39R
MITCHELL       CLOUDY    34  29  82 NW9       29.43R
PIERRE         FAIR      29  26  89 W5        29.40R WCI  24
MOBRIDGE       CLOUDY    29  25  85 NW7       29.37R FOG     WCI  22
RAPID CITY     FAIR      43  30  60 N8        29.41R
$$

  *****  SOME WEATHER IN NEARBY STATES *****

CITY           SKY/WX    TMP DP  RH WIND       PRES   REMARKS
GLASGOW MT     FAIR      27  22  81 W9        29.42R WCI  18
GREAT FALLS MT FAIR      34  21  59 W6        29.46R
CHEYENNE WY    PTSUNNY   38  21  50 S6        29.37S
SCOTTSBLUFF NE FAIR      43  27  53 CALM      29.39F
OMAHA NE       FAIR      51  38  60 SW9       29.44R
DES MOINES IA  CLOUDY    46  40  79 SW15      29.46R
DAVENPORT IA   CLOUDY    45  43  93 W10       29.48R FOG
CHICAGO IL     FAIR      58  44  60 SW13      29.46R
EAU CLAIRE WI  FOG       36  36 100 CALM      29.40R VSB 1/4
LA CROSSE WI   CLOUDY    42  39  89 S7        29.42R FOG
$$

  *****  SOME NATIONAL WEATHER *****

CITY           SKY/WX    TMP DP  RH WIND       PRES   REMARKS
LA GUARDIA NY  MOCLDY    49  43  80 SW7       29.81S
RALEIGH NC     FOG       54  53  97 SE3       29.80F VSB 1/4
ATLANTA GA     PTSUNNY   62  57  83 CALM      29.65R
NEW ORLEANS LA PTSUNNY   77  69  76 SE12      29.55F
OKLAHOMA CITY  PTSUNNY   68  37  32 S15       29.36F
ALBUQUERQUE NM PTSUNNY   43  21  41 NW21G28   29.49R
SALT LAKE CITY CLOUDY    34  32  92 CALM      29.63R
LOS ANGELES CA FAIR      59  46  62 W18       29.94S
BOISE ID       CLOUDY    37  33  85 SE7       29.61R
SEATTLE WA     PTSUNNY   51  34  52 CALM      29.40R
$$

*** WEATHER ACROSS MANITOBA...SASKATCHEWAN AND ONTARIO ***
                ***ONTARIO***

CITY           SKY/WX    TMP DP  RH WIND       PRES   REMARKS
GERALDTON      LGT RAIN  34  32  93 E6        29.62R VSB 1
THUNDER BAY    CLOUDY    36  36 100 E12       29.54F FOG
SIOUX LOOKOUT  DRIZZLE   36  34  93 SE3       29.52R FOG
TORONTO        CLOUDY    41  41 100 S3        29.71F FOG
BIG TROUT LK   FLURRIES  28  27  93 SE8       29.70R WCI  20
PICKLE LAKE    FLURRIES  32  32 100 E8        29.58S WCI  25
DRYDEN         LGT RAIN  36  34  93 E6        29.50R
KENORA         CLOUDY    34  34 100 SE3       29.48S
$$
                *** MANITOBA***

CITY           SKY/WX    TMP DP  RH WIND       PRES   REMARKS
BRANDON        FOG       34  32  93 SE6       29.41R VSB 1/4
DAUPHIN        CLOUDY    34  32  93 E6        29.43R
ISLAND LAKE    LGT RAIN  32  32 100 E7        29.59R
PILOT MOUND      N/A     32  32 100 SE6         N/A
THE PAS        CLOUDY    34  32  93 SE8       29.46R
THOMPSON       NOT AVBL
WINNIPEG       DRIZZLE   36  34  93 SE10      29.47R FOG
LYNN LAKE      LGT SNOW  28  28 100 NE7       29.58R WCI  21
CHURCHILL      CLOUDY    18  16  93 SE15      29.84R WCI   3
GILLAM         LGT SNOW  28  27  93 E9        29.70R FOG     WCI  20
$$
                ***SASKATCHEWAN***

CITY           SKY/WX    TMP DP  RH WIND       PRES   REMARKS
ESTEVAN        FOG       21  21 100 W5        29.37R VSB 1/8 WCI  15
KINDERSLEY     FOG       28  28 100 NW8       29.44R VSB 1/4 WCI  20
LLOYDMINSTER   FOG       27  27 100 N8        29.50R VSB 1   WCI  18
PRINCE ALBERT  LGT SNOW  27  25  93 N3        29.43R
REGINA         CLOUDY    25  25 100 NW9       29.38R FOG     WCI  15
YORKTON        LGT SNOW  32  30  93 SE5       29.38R
N. BATTLEFORD  CLOUDY    30  30 100 N13       29.48R WCI  20
LA RONGE       LGT SNOW  27  25  93 N6        29.51R VSB 3/4 WCI  20
SASKATOON      CLOUDY    28  27  93 N6        29.45R FOG     WCI  22
SWIFT CURRENT  FRZ RAIN  25  25 100 NW14      29.39R VSB 1/8 WCI  13
$$
NOTE: THESE ARE AUTOMATED STATIONS WITH LIMITED QUALITY CONTROL
      "FAIR" INDICATES FEW OR NO CLOUDS BELOW 12,000 FEET WITH NO
      SIGNIFICANT WEATHER AND/OR OBSTRUCTIONS TO VISIBILITY.
      SKY/WX - SKY CONDITION AND SIGNIFICANT WEATHER.
      TMP - AIR TEMPERATURE.    DP   - DEWPOINT TEMPERATURE.
      RH  - RELATIVE HUMIDITY.  PRES - PRESSURE.
      HX  - HEAT INDEX.         WCI  - WIND CHILL INDEX.
$



USA.gov is the U.S. government's official web portal to all federal, state and local government web resources and services.